Orbital Elements at Epoch 2459000.5 (2020-May-31.0) TDB
Reference: JPL 11 (heliocentric ecliptic J2000)
Element | Value | Uncertainty (1-sigma) | Units |
e | .1434532953641299 | 8.7826e-08 | |
a | 2.62809944507974 | 4.6576e-08 | au |
q | 2.25108991913841 | 2.4865e-07 | au |
i | 13.34915101142042 | 9.4324e-06 | deg |
node | 49.49729884542999 | 3.6347e-05 | deg |
peri | 34.26192168194025 | 6.5185e-05 | deg |
M | 244.5596950000998 | 6.2407e-05 | deg |
tp | 2459499.517853099878 (2021-Oct-12.01785310) | 0.0002804 | TDB |
period | 1556.184619540908 4.26 | 4.1368e-05 1.133e-07 | d yr |
n | .2313350199452581 | 6.1496e-09 | deg/d |
Q | 3.00510897102107 | 5.3257e-08 | au |
|
| | Orbit Determination Parameters
Additional Information
|